{"data":{"norad_id":68440,"intl_designator":"2026-067AA","name":"TRANSPORTER-16 OBJECT AA","alt_names":[],"object_type":"PAYLOAD","status":"ACTIVE","operator":null,"country":"TBD","launch_date":"2026-03-30","launch_site_code":"AFWTR","launch_vehicle":null,"mission":null,"orbit_class":"UNKNOWN","rcs_meters":null,"size_class":null,"mass_kg":null,"dimensions":null,"purposes":[],"wikipedia_slug":null,"has_3d_model":false,"image_url":null,"decayed_at":null,"tle_current":{"epoch":"2026-05-24T20:39:14.501664Z","epoch_age_seconds":91046,"freshness":"FRESH","line1":"1 68440U 26067AA  26144.86058451  .00017233  00000+0  81948-3 0  9995","line2":"2 68440  97.4497 103.6774 0005161 116.8470 243.3293 15.19243606  8407","mean_motion":15.19243606,"eccentricity":0.0005161,"inclination_deg":97.4497,"raan_deg":103.6774,"arg_perigee_deg":116.847,"mean_anomaly_deg":243.3293,"bstar":0.00081948,"rev_number":840,"period_min":94.784009247296,"perigee_km":504.5713328782,"apogee_km":511.67933285819,"semimajor_km":6886.2623328682,"source":"CELESTRAK","updated_at":"2026-05-25T13:38:07.837710Z"}}}